Time,TemperatureF,DewpointF,PressureIn,WindDirection,WindDirectionDegrees,WindSpeedMPH,WindSpeedGustMPH,Humidity,HourlyPrecipIn,Conditions,Clouds,dailyrainin,SoftwareType,DateUTC
2013-03-02 00:03:00,48.2,38.5,30.03,East,98,2.0,3.0,69,0.00,,,0.00,Wunderground v.1.15,2013-03-02 05:03:00,
2013-03-02 00:08:00,48.2,38.9,30.03,East,99,2.0,2.0,70,0.00,,,0.00,Wunderground v.1.15,2013-03-02 05:08:00,
2013-03-02 00:13:00,48.2,38.5,30.03,East,98,2.0,2.0,69,0.00,,,0.00,Wunderground v.1.15,2013-03-02 05:13:00,
2013-03-02 00:18:00,48.1,38.4,30.03,East,81,2.0,2.0,69,0.00,,,0.00,Wunderground v.1.15,2013-03-02 05:18:00,
2013-03-02 00:23:00,48.1,38.4,30.03,East,96,2.0,2.0,69,0.00,,,0.00,Wunderground v.1.15,2013-03-02 05:23:00,
2013-03-02 00:28:00,48.0,38.3,30.02,ESE,115,2.0,2.0,69,0.00,,,0.00,Wunderground v.1.15,2013-03-02 05:28:00,
2013-03-02 00:33:00,48.0,38.3,30.02,ESE,105,2.0,2.0,69,0.00,,,0.00,Wunderground v.1.15,2013-03-02 05:33:00,
2013-03-02 00:38:00,47.9,38.6,30.02,ESE,115,2.0,2.0,70,0.00,,,0.00,Wunderground v.1.15,2013-03-02 05:38:00,
2013-03-02 00:43:00,47.8,38.5,30.02,ESE,104,1.0,2.0,70,0.00,,,0.00,Wunderground v.1.15,2013-03-02 05:43:00,
2013-03-02 00:48:00,47.7,38.0,30.03,ESE,104,2.0,4.0,69,0.00,,,0.00,Wunderground v.1.15,2013-03-02 05:48:00,
2013-03-02 00:53:00,47.7,38.0,30.02,East,100,2.0,4.0,69,0.00,,,0.00,Wunderground v.1.15,2013-03-02 05:53:00,
2013-03-02 00:58:00,47.5,38.2,30.02,East,95,1.0,1.0,70,0.00,,,0.00,Wunderground v.1.15,2013-03-02 05:58:00,
2013-03-02 01:03:00,47.4,38.1,30.02,East,94,1.0,1.0,70,0.00,,,0.00,Wunderground v.1.15,2013-03-02 06:03:00,
2013-03-02 01:08:00,47.3,38.0,30.03,ESE,110,2.0,2.0,70,0.00,,,0.00,Wunderground v.1.15,2013-03-02 06:08:00,
2013-03-02 01:18:00,47.0,37.7,30.03,ESE,115,2.0,2.0,70,0.00,,,0.00,Wunderground v.1.15,2013-03-02 06:18:00,
2013-03-02 01:23:00,46.9,38.0,30.03,East,98,2.0,2.0,71,0.00,,,0.00,Wunderground v.1.15,2013-03-02 06:23:00,
2013-03-02 01:28:00,46.7,37.8,30.03,East,98,2.0,2.0,71,0.00,,,0.00,Wunderground v.1.15,2013-03-02 06:28:00,
2013-03-02 01:33:00,46.6,37.7,30.03,East,94,2.0,2.0,71,0.00,,,0.00,Wunderground v.1.15,2013-03-02 06:33:00,
2013-03-02 01:38:00,46.5,37.6,30.03,East,101,2.0,2.0,71,0.00,,,0.00,Wunderground v.1.15,2013-03-02 06:38:00,
2013-03-02 01:43:00,46.5,37.6,30.03,East,101,2.0,2.0,71,0.00,,,0.00,Wunderground v.1.15,2013-03-02 06:43:00,
2013-03-02 01:48:00,46.4,37.5,30.03,ESE,118,2.0,2.0,71,0.00,,,0.00,Wunderground v.1.15,2013-03-02 06:48:00,
2013-03-02 01:53:00,46.4,37.9,30.03,ESE,102,2.0,2.0,72,0.00,,,0.00,Wunderground v.1.15,2013-03-02 06:53:00,
2013-03-02 01:58:00,46.4,37.9,30.03,East,97,1.0,2.0,72,0.00,,,0.00,Wunderground v.1.15,2013-03-02 06:58:00,
2013-03-02 02:08:00,46.3,37.8,30.02,East,96,1.0,1.0,72,0.00,,,0.00,Wunderground v.1.15,2013-03-02 07:08:00,
2013-03-02 02:13:00,46.2,37.7,30.02,East,97,2.0,2.0,72,0.00,,,0.00,Wunderground v.1.15,2013-03-02 07:13:00,
2013-03-02 02:18:00,46.1,37.6,30.02,East,98,2.0,2.0,72,0.00,,,0.00,Wunderground v.1.15,2013-03-02 07:18:00,
2013-03-02 02:23:00,46.0,37.8,30.02,East,98,1.0,2.0,73,0.00,,,0.00,Wunderground v.1.15,2013-03-02 07:23:00,
2013-03-02 02:28:00,45.9,37.7,30.02,East,101,1.0,2.0,73,0.00,,,0.00,Wunderground v.1.15,2013-03-02 07:28:00,
2013-03-02 02:33:00,45.7,37.5,30.02,East,82,1.0,3.0,73,0.00,,,0.00,Wunderground v.1.15,2013-03-02 07:33:00,
2013-03-02 02:38:00,45.6,37.4,30.02,East,88,1.0,3.0,73,0.00,,,0.00,Wunderground v.1.15,2013-03-02 07:38:00,
2013-03-02 02:43:00,45.5,37.7,30.02,East,101,1.0,3.0,74,0.00,,,0.00,Wunderground v.1.15,2013-03-02 07:43:00,
2013-03-02 02:48:00,45.4,37.6,30.02,SE,124,2.0,2.0,74,0.00,,,0.00,Wunderground v.1.15,2013-03-02 07:48:00,
2013-03-02 02:53:00,45.3,37.5,30.02,East,100,1.0,2.0,74,0.00,,,0.00,Wunderground v.1.15,2013-03-02 07:53:00,
2013-03-02 02:58:00,45.1,37.3,30.02,ESE,112,1.0,2.0,74,0.00,,,0.00,Wunderground v.1.15,2013-03-02 07:58:00,
2013-03-02 03:03:00,45.0,37.6,30.02,East,101,2.0,2.0,75,0.00,,,0.00,Wunderground v.1.15,2013-03-02 08:03:00,
2013-03-02 03:08:00,44.8,37.4,30.02,East,97,1.0,2.0,75,0.00,,,0.00,Wunderground v.1.15,2013-03-02 08:08:00,
2013-03-02 03:13:00,44.6,37.2,30.02,East,82,1.0,2.0,75,0.00,,,0.00,Wunderground v.1.15,2013-03-02 08:13:00,
2013-03-02 03:18:00,44.5,37.4,30.02,ESE,118,1.0,1.0,76,0.00,,,0.00,Wunderground v.1.15,2013-03-02 08:18:00,
2013-03-02 03:23:00,44.2,37.1,30.02,East,94,1.0,2.0,76,0.00,,,0.00,Wunderground v.1.15,2013-03-02 08:23:00,
2013-03-02 03:28:00,44.1,37.0,30.02,SE,125,1.0,1.0,76,0.00,,,0.00,Wunderground v.1.15,2013-03-02 08:28:00,
2013-03-02 03:33:00,43.9,37.2,30.02,ESE,108,1.0,1.0,77,0.00,,,0.00,Wunderground v.1.15,2013-03-02 08:33:00,
2013-03-02 03:38:00,43.7,37.0,30.02,East,87,0.0,0.0,77,0.00,,,0.00,Wunderground v.1.15,2013-03-02 08:38:00,
2013-03-02 03:43:00,43.5,37.1,30.02,East,87,0.0,1.0,78,0.00,,,0.00,Wunderground v.1.15,2013-03-02 08:43:00,
2013-03-02 03:48:00,43.4,37.0,30.02,East,91,0.0,1.0,78,0.00,,,0.00,Wunderground v.1.15,2013-03-02 08:48:00,
2013-03-02 03:53:00,43.3,36.9,30.02,SE,129,1.0,1.0,78,0.00,,,0.00,Wunderground v.1.15,2013-03-02 08:53:00,
2013-03-02 03:58:00,43.2,37.1,30.02,ESE,121,1.0,1.0,79,0.00,,,0.00,Wunderground v.1.15,2013-03-02 08:58:00,
2013-03-02 04:03:00,43.1,37.0,30.02,East,93,1.0,1.0,79,0.00,,,0.00,Wunderground v.1.15,2013-03-02 09:03:00,
2013-03-02 04:13:00,42.8,37.1,30.02,East,82,0.0,1.0,80,0.00,,,0.00,Wunderground v.1.15,2013-03-02 09:13:00,
2013-03-02 04:18:00,42.7,37.0,30.02,ESE,105,0.0,2.0,80,0.00,,,0.00,Wunderground v.1.15,2013-03-02 09:18:00,
2013-03-02 04:23:00,42.5,36.8,30.02,ESE,105,1.0,2.0,80,0.00,,,0.00,Wunderground v.1.15,2013-03-02 09:23:00,
2013-03-02 04:28:00,42.4,37.0,30.02,ESE,107,1.0,1.0,81,0.00,,,0.00,Wunderground v.1.15,2013-03-02 09:28:00,
2013-03-02 04:33:00,42.4,37.0,30.03,East,101,0.0,1.0,81,0.00,,,0.00,Wunderground v.1.15,2013-03-02 09:33:00,
2013-03-02 04:38:00,42.3,36.9,30.03,East,101,0.0,1.0,81,0.00,,,0.00,Wunderground v.1.15,2013-03-02 09:38:00,
2013-03-02 04:43:00,42.2,36.8,30.03,ESE,110,0.0,1.0,81,0.00,,,0.00,Wunderground v.1.15,2013-03-02 09:43:00,
2013-03-02 04:48:00,42.1,36.7,30.03,East,97,1.0,1.0,81,0.00,,,0.00,Wunderground v.1.15,2013-03-02 09:48:00,
2013-03-02 04:53:00,42.0,36.9,30.03,East,98,1.0,1.0,82,0.00,,,0.00,Wunderground v.1.15,2013-03-02 09:53:00,
2013-03-02 04:58:00,41.9,36.8,30.03,East,98,0.0,0.0,82,0.00,,,0.00,Wunderground v.1.15,2013-03-02 09:58:00,
2013-03-02 05:03:00,41.6,36.5,30.03,East,99,0.0,0.0,82,0.00,,,0.00,Wunderground v.1.15,2013-03-02 10:03:00,
2013-03-02 05:08:00,41.5,36.7,30.03,East,98,0.0,0.0,83,0.00,,,0.00,Wunderground v.1.15,2013-03-02 10:08:00,
2013-03-02 05:14:00,41.3,36.5,30.02,ESE,110,0.0,0.0,83,0.00,,,0.00,Wunderground v.1.15,2013-03-02 10:14:00,
2013-03-02 05:18:00,41.2,36.4,30.02,East,91,0.0,0.0,83,0.00,,,0.00,Wunderground v.1.15,2013-03-02 10:18:00,
2013-03-02 05:23:00,41.1,36.6,30.03,East,91,0.0,0.0,84,0.00,,,0.00,Wunderground v.1.15,2013-03-02 10:23:00,
2013-03-02 05:28:00,40.9,36.1,30.03,East,92,0.0,0.0,83,0.00,,,0.00,Wunderground v.1.15,2013-03-02 10:28:00,
2013-03-02 05:33:00,40.6,36.1,30.02,East,91,0.0,0.0,84,0.00,,,0.00,Wunderground v.1.15,2013-03-02 10:33:00,
2013-03-02 05:38:00,40.4,36.2,30.02,East,91,0.0,0.0,85,0.00,,,0.00,Wunderground v.1.15,2013-03-02 10:38:00,
2013-03-02 05:43:00,40.2,36.1,30.02,East,92,0.0,0.0,85,0.00,,,0.00,Wunderground v.1.15,2013-03-02 10:43:00,
2013-03-02 05:48:00,40.1,36.0,30.02,East,92,0.0,0.0,85,0.00,,,0.00,Wunderground v.1.15,2013-03-02 10:48:00,
2013-03-02 05:53:00,39.9,35.8,30.02,East,92,0.0,0.0,85,0.00,,,0.00,Wunderground v.1.15,2013-03-02 10:53:00,
2013-03-02 05:58:00,39.6,35.5,30.02,East,91,0.0,0.0,85,0.00,,,0.00,Wunderground v.1.15,2013-03-02 10:58:00,
2013-03-02 06:03:00,39.4,35.6,30.02,East,92,0.0,0.0,86,0.00,,,0.00,Wunderground v.1.15,2013-03-02 11:03:00,
2013-03-02 06:08:00,39.3,35.8,30.02,East,92,0.0,0.0,87,0.00,,,0.00,Wunderground v.1.15,2013-03-02 11:08:00,
2013-03-02 06:13:00,39.1,35.6,30.02,East,92,0.0,0.0,87,0.00,,,0.00,Wunderground v.1.15,2013-03-02 11:13:00,
2013-03-02 06:18:00,38.9,35.6,30.02,East,92,0.0,0.0,88,0.00,,,0.00,Wunderground v.1.15,2013-03-02 11:18:00,
2013-03-02 06:23:00,38.7,35.5,30.02,East,91,0.0,0.0,88,0.00,,,0.00,Wunderground v.1.15,2013-03-02 11:23:00,
2013-03-02 06:28:00,38.4,35.2,30.02,East,91,0.0,0.0,88,0.00,,,0.00,Wunderground v.1.15,2013-03-02 11:28:00,
2013-03-02 06:33:00,38.5,35.5,30.02,East,92,0.0,0.0,89,0.00,,,0.00,Wunderground v.1.15,2013-03-02 11:33:00,
2013-03-02 06:38:00,38.7,36.0,30.02,East,91,0.0,0.0,90,0.00,,,0.00,Wunderground v.1.15,2013-03-02 11:38:00,
2013-03-02 06:43:00,38.7,35.7,30.03,East,92,0.0,0.0,89,0.00,,,0.00,Wunderground v.1.15,2013-03-02 11:43:00,
2013-03-02 06:48:00,38.6,35.6,30.02,East,92,0.0,0.0,89,0.00,,,0.00,Wunderground v.1.15,2013-03-02 11:48:00,
2013-03-02 06:53:00,38.4,35.4,30.03,East,91,0.0,0.0,89,0.00,,,0.00,Wunderground v.1.15,2013-03-02 11:53:00,
2013-03-02 06:58:00,38.5,35.5,30.03,East,92,0.0,0.0,89,0.00,,,0.00,Wunderground v.1.15,2013-03-02 11:58:00,
2013-03-02 07:03:00,38.4,35.4,30.03,East,92,0.0,0.0,89,0.00,,,0.00,Wunderground v.1.15,2013-03-02 12:03:00,
2013-03-02 07:08:00,38.3,35.6,30.03,East,91,0.0,0.0,90,0.00,,,0.00,Wunderground v.1.15,2013-03-02 12:08:00,
2013-03-02 07:13:00,38.3,35.6,30.03,East,91,0.0,0.0,90,0.00,,,0.00,Wunderground v.1.15,2013-03-02 12:13:00,
2013-03-02 07:18:00,38.3,35.6,30.03,East,92,0.0,0.0,90,0.00,,,0.00,Wunderground v.1.15,2013-03-02 12:18:00,
2013-03-02 07:23:00,38.5,35.8,30.03,East,94,0.0,0.0,90,0.00,,,0.00,Wunderground v.1.15,2013-03-02 12:23:00,
2013-03-02 07:28:00,38.5,35.8,30.03,East,94,0.0,0.0,90,0.00,,,0.00,Wunderground v.1.15,2013-03-02 12:28:00,
2013-03-02 07:33:00,38.5,35.8,30.03,East,95,0.0,0.0,90,0.00,,,0.00,Wunderground v.1.15,2013-03-02 12:33:00,
2013-03-02 07:38:00,38.6,35.9,30.04,East,95,0.0,0.0,90,0.00,,,0.00,Wunderground v.1.15,2013-03-02 12:38:00,
2013-03-02 07:43:00,38.7,36.0,30.04,East,94,0.0,0.0,90,0.00,,,0.00,Wunderground v.1.15,2013-03-02 12:43:00,
2013-03-02 07:48:00,38.8,36.1,30.04,East,95,0.0,1.0,90,0.00,,,0.00,Wunderground v.1.15,2013-03-02 12:48:00,
2013-03-02 07:53:00,39.2,36.5,30.04,ESE,103,0.0,1.0,90,0.00,,,0.00,Wunderground v.1.15,2013-03-02 12:53:00,
2013-03-02 07:58:00,39.6,36.6,30.04,East,87,1.0,1.0,89,0.00,,,0.00,Wunderground v.1.15,2013-03-02 12:58:00,
2013-03-02 08:03:00,40.0,36.7,30.03,East,82,2.0,2.0,88,0.00,,,0.00,Wunderground v.1.15,2013-03-02 13:03:00,
2013-03-02 08:08:00,40.5,36.9,30.03,East,98,1.0,1.0,87,0.00,,,0.00,Wunderground v.1.15,2013-03-02 13:08:00,
2013-03-02 08:13:00,41.0,37.1,30.04,ENE,74,1.0,3.0,86,0.00,,,0.00,Wunderground v.1.15,2013-03-02 13:13:00,
2013-03-02 08:18:00,41.5,37.0,30.04,East,96,1.0,2.0,84,0.00,,,0.00,Wunderground v.1.15,2013-03-02 13:18:00,
2013-03-02 08:23:00,41.9,36.8,30.04,ENE,77,2.0,2.0,82,0.00,,,0.00,Wunderground v.1.15,2013-03-02 13:23:00,
2013-03-02 08:28:00,42.4,37.3,30.04,SE,135,2.0,2.0,82,0.00,,,0.00,Wunderground v.1.15,2013-03-02 13:28:00,
2013-03-02 08:33:00,43.0,37.3,30.04,ESE,110,1.0,2.0,80,0.00,,,0.00,Wunderground v.1.15,2013-03-02 13:33:00,
2013-03-02 08:38:00,43.5,37.4,30.04,ENE,73,1.0,1.0,79,0.00,,,0.00,Wunderground v.1.15,2013-03-02 13:38:00,
2013-03-02 08:43:00,44.0,37.3,30.04,East,82,1.0,2.0,77,0.00,,,0.00,Wunderground v.1.15,2013-03-02 13:43:00,
2013-03-02 08:48:00,44.4,37.0,30.04,ENE,77,2.0,2.0,75,0.00,,,0.00,Wunderground v.1.15,2013-03-02 13:48:00,
2013-03-02 08:53:00,45.0,36.9,30.05,East,101,1.0,2.0,73,0.00,,,0.00,Wunderground v.1.15,2013-03-02 13:53:00,
2013-03-02 08:58:00,45.5,37.3,30.05,East,93,1.0,1.0,73,0.00,,,0.00,Wunderground v.1.15,2013-03-02 13:58:00,
2013-03-02 09:03:00,46.1,37.2,30.05,ESE,110,1.0,1.0,71,0.00,,,0.00,Wunderground v.1.15,2013-03-02 14:03:00,
2013-03-02 09:08:00,46.5,37.2,30.04,East,83,1.0,3.0,70,0.00,,,0.00,Wunderground v.1.15,2013-03-02 14:08:00,
2013-03-02 09:13:00,46.6,36.6,30.04,East,94,2.0,3.0,68,0.00,,,0.00,Wunderground v.1.15,2013-03-02 14:13:00,
2013-03-02 09:18:00,47.1,36.3,30.04,East,86,2.0,4.0,66,0.00,,,0.00,Wunderground v.1.15,2013-03-02 14:18:00,
2013-03-02 09:23:00,47.3,36.1,30.04,East,94,2.0,4.0,65,0.00,,,0.00,Wunderground v.1.15,2013-03-02 14:23:00,
2013-03-02 09:28:00,47.6,36.0,30.04,East,84,2.0,3.0,64,0.00,,,0.00,Wunderground v.1.15,2013-03-02 14:28:00,
2013-03-02 09:33:00,48.0,36.0,30.03,ENE,72,2.0,3.0,63,0.00,,,0.00,Wunderground v.1.15,2013-03-02 14:33:00,
2013-03-02 09:38:00,48.4,35.6,30.03,ESE,117,2.0,2.0,61,0.00,,,0.00,Wunderground v.1.15,2013-03-02 14:38:00,
2013-03-02 09:43:00,49.1,35.4,30.03,SE,126,2.0,6.0,59,0.00,,,0.00,Wunderground v.1.15,2013-03-02 14:43:00,
2013-03-02 09:48:00,49.2,35.9,30.03,ESE,114,3.0,3.0,60,0.00,,,0.00,Wunderground v.1.15,2013-03-02 14:48:00,
2013-03-02 09:53:00,49.9,36.6,30.03,East,96,3.0,7.0,60,0.00,,,0.00,Wunderground v.1.15,2013-03-02 14:53:00,
2013-03-02 09:58:00,50.2,35.5,30.03,East,101,3.0,3.0,57,0.00,,,0.00,Wunderground v.1.15,2013-03-02 14:58:00,
2013-03-02 10:03:00,50.7,35.6,30.02,ESE,103,3.0,6.0,56,0.00,,,0.00,Wunderground v.1.15,2013-03-02 15:03:00,
2013-03-02 10:08:00,50.9,35.3,30.02,East,92,3.0,3.0,55,0.00,,,0.00,Wunderground v.1.15,2013-03-02 15:08:00,
2013-03-02 10:13:00,51.3,35.7,30.02,East,82,3.0,4.0,55,0.00,,,0.00,Wunderground v.1.15,2013-03-02 15:13:00,
2013-03-02 10:18:00,51.0,34.9,30.02,SE,128,4.0,4.0,54,0.00,,,0.00,Wunderground v.1.15,2013-03-02 15:18:00,
2013-03-02 10:23:00,50.9,34.8,30.01,ESE,102,5.0,7.0,54,0.00,,,0.00,Wunderground v.1.15,2013-03-02 15:23:00,
2013-03-02 10:33:00,51.2,35.6,30.01,ESE,108,5.0,15.0,55,0.00,,,0.00,Wunderground v.1.15,2013-03-02 15:33:00,
2013-03-02 10:38:00,51.5,35.9,30.01,East,94,5.0,10.0,55,0.00,,,0.00,Wunderground v.1.15,2013-03-02 15:38:00,
2013-03-02 10:43:00,51.8,35.7,30.01,ESE,122,4.0,10.0,54,0.00,,,0.00,Wunderground v.1.15,2013-03-02 15:43:00,
2013-03-02 10:48:00,52.2,36.0,30.01,East,86,4.0,4.0,54,0.00,,,0.00,Wunderground v.1.15,2013-03-02 15:48:00,
2013-03-02 10:53:00,52.2,35.1,30.01,ENE,70,4.0,4.0,52,0.00,,,0.00,Wunderground v.1.15,2013-03-02 15:53:00,
2013-03-02 10:58:00,53.1,35.9,30.01,East,86,3.0,7.0,52,0.00,,,0.00,Wunderground v.1.15,2013-03-02 15:58:00,
2013-03-02 11:03:00,53.5,35.3,30.00,East,82,3.0,7.0,50,0.00,,,0.00,Wunderground v.1.15,2013-03-02 16:03:00,
2013-03-02 11:08:00,54.3,35.0,30.00,East,81,3.0,4.0,48,0.00,,,0.00,Wunderground v.1.15,2013-03-02 16:08:00,
2013-03-02 11:13:00,54.5,35.7,30.00,ESE,108,3.0,4.0,49,0.00,,,0.00,Wunderground v.1.15,2013-03-02 16:13:00,
2013-03-02 11:18:00,54.0,33.1,30.01,ENE,74,5.0,6.0,45,0.00,,,0.00,Wunderground v.1.15,2013-03-02 16:18:00,
2013-03-02 11:23:00,53.5,33.2,30.01,ESE,113,6.0,10.0,46,0.00,,,0.00,Wunderground v.1.15,2013-03-02 16:23:00,
2013-03-02 11:28:00,53.2,32.9,30.00,SE,135,6.0,6.0,46,0.00,,,0.00,Wunderground v.1.15,2013-03-02 16:28:00,
2013-03-02 11:38:00,53.8,31.8,30.00,ESE,110,6.0,7.0,43,0.00,,,0.00,Wunderground v.1.15,2013-03-02 16:38:00,
2013-03-02 11:43:00,53.5,31.0,30.00,SE,136,7.0,7.0,42,0.00,,,0.00,Wunderground v.1.15,2013-03-02 16:43:00,
2013-03-02 11:48:00,53.5,30.4,30.00,NE,56,7.0,7.0,41,0.00,,,0.00,Wunderground v.1.15,2013-03-02 16:48:00,
2013-03-02 11:53:00,53.6,31.0,29.99,East,90,6.0,7.0,42,0.00,,,0.00,Wunderground v.1.15,2013-03-02 16:53:00,
2013-03-02 11:58:00,54.0,32.6,30.00,East,92,5.0,15.0,44,0.00,,,0.00,Wunderground v.1.15,2013-03-02 16:58:00,
2013-03-02 12:03:00,54.0,32.0,30.00,ENE,72,5.0,15.0,43,0.00,,,0.00,Wunderground v.1.15,2013-03-02 17:03:00,
2013-03-02 12:13:00,54.6,33.1,29.99,NE,56,5.0,5.0,44,0.00,,,0.00,Wunderground v.1.15,2013-03-02 17:13:00,
2013-03-02 12:18:00,54.7,32.0,29.99,SSW,203,5.0,6.0,42,0.00,,,0.00,Wunderground v.1.15,2013-03-02 17:18:00,
2013-03-02 12:23:00,54.3,32.3,29.99,SSE,148,5.0,6.0,43,0.00,,,0.00,Wunderground v.1.15,2013-03-02 17:23:00,
2013-03-02 12:28:00,54.0,32.0,29.99,SE,144,5.0,5.0,43,0.00,,,0.00,Wunderground v.1.15,2013-03-02 17:28:00,
2013-03-02 12:33:00,53.9,31.9,29.99,South,171,6.0,11.0,43,0.00,,,0.00,Wunderground v.1.15,2013-03-02 17:33:00,
2013-03-02 12:38:00,53.4,32.6,29.99,NE,44,6.0,6.0,45,0.00,,,0.00,Wunderground v.1.15,2013-03-02 17:38:00,
2013-03-02 12:43:00,53.5,32.7,30.00,SE,143,6.0,6.0,45,0.00,,,0.00,Wunderground v.1.15,2013-03-02 17:43:00,
2013-03-02 12:48:00,53.5,33.2,29.99,SE,129,5.0,5.0,46,0.00,,,0.00,Wunderground v.1.15,2013-03-02 17:48:00,
2013-03-02 12:53:00,53.5,33.2,29.99,SE,126,5.0,5.0,46,0.00,,,0.00,Wunderground v.1.15,2013-03-02 17:53:00,
2013-03-02 12:58:00,53.6,33.8,29.99,East,94,5.0,5.0,47,0.00,,,0.00,Wunderground v.1.15,2013-03-02 17:58:00,
2013-03-02 13:03:00,54.0,33.7,29.99,East,94,4.0,5.0,46,0.00,,,0.00,Wunderground v.1.15,2013-03-02 18:03:00,
2013-03-02 13:08:00,53.9,33.0,29.99,East,98,5.0,5.0,45,0.00,,,0.00,Wunderground v.1.15,2013-03-02 18:08:00,
2013-03-02 13:13:00,53.9,33.0,29.99,ESE,113,5.0,5.0,45,0.00,,,0.00,Wunderground v.1.15,2013-03-02 18:13:00,
2013-03-02 13:23:00,53.7,32.8,29.98,NNE,33,5.0,5.0,45,0.00,,,0.00,Wunderground v.1.15,2013-03-02 18:23:00,
2013-03-02 13:28:00,53.8,33.5,29.98,South,172,5.0,6.0,46,0.00,,,0.00,Wunderground v.1.15,2013-03-02 18:28:00,
2013-03-02 13:33:00,53.5,32.7,29.97,East,84,5.0,6.0,45,0.00,,,0.00,Wunderground v.1.15,2013-03-02 18:33:00,
2013-03-02 13:38:00,53.5,31.5,29.97,ESE,107,6.0,6.0,43,0.00,,,0.00,Wunderground v.1.15,2013-03-02 18:38:00,
2013-03-02 13:43:00,52.9,32.1,29.97,NE,43,6.0,6.0,45,0.00,,,0.00,Wunderground v.1.15,2013-03-02 18:43:00,
2013-03-02 13:48:00,53.4,32.6,29.97,East,85,5.0,12.0,45,0.00,,,0.00,Wunderground v.1.15,2013-03-02 18:48:00,
2013-03-02 13:53:00,53.8,33.5,29.97,SE,129,5.0,12.0,46,0.00,,,0.00,Wunderground v.1.15,2013-03-02 18:53:00,
2013-03-02 13:58:00,54.0,33.7,29.96,ENE,72,5.0,5.0,46,0.00,,,0.00,Wunderground v.1.15,2013-03-02 18:58:00,
2013-03-02 14:03:00,54.1,34.8,29.96,ESE,120,5.0,5.0,48,0.00,,,0.00,Wunderground v.1.15,2013-03-02 19:03:00,
2013-03-02 14:08:00,54.7,34.3,29.96,ESE,105,4.0,5.0,46,0.00,,,0.00,Wunderground v.1.15,2013-03-02 19:08:00,
2013-03-02 14:13:00,54.2,33.3,29.96,SSE,149,4.0,5.0,45,0.00,,,0.00,Wunderground v.1.15,2013-03-02 19:13:00,
2013-03-02 14:18:00,54.1,33.8,29.96,SSE,165,5.0,5.0,46,0.00,,,0.00,Wunderground v.1.15,2013-03-02 19:18:00,
2013-03-02 14:23:00,54.3,33.9,29.96,SSE,159,4.0,5.0,46,0.00,,,0.00,Wunderground v.1.15,2013-03-02 19:23:00,
2013-03-02 14:28:00,54.4,33.5,29.96,East,82,4.0,5.0,45,0.00,,,0.00,Wunderground v.1.15,2013-03-02 19:28:00,
2013-03-02 14:33:00,54.5,33.0,29.95,East,88,5.0,5.0,44,0.00,,,0.00,Wunderground v.1.15,2013-03-02 19:33:00,
2013-03-02 14:38:00,54.1,32.6,29.96,ESE,113,6.0,6.0,44,0.00,,,0.00,Wunderground v.1.15,2013-03-02 19:38:00,
2013-03-02 14:43:00,54.2,33.9,29.96,SE,130,5.0,6.0,46,0.00,,,0.00,Wunderground v.1.15,2013-03-02 19:43:00,
2013-03-02 14:48:00,54.1,33.8,29.95,ESE,113,4.0,5.0,46,0.00,,,0.00,Wunderground v.1.15,2013-03-02 19:48:00,
2013-03-02 14:53:00,54.2,33.3,29.95,ESE,115,4.0,9.0,45,0.00,,,0.00,Wunderground v.1.15,2013-03-02 19:53:00,
2013-03-02 14:58:00,54.2,33.3,29.96,ESE,116,5.0,5.0,45,0.00,,,0.00,Wunderground v.1.15,2013-03-02 19:58:00,
2013-03-02 15:03:00,53.9,33.0,29.96,SE,137,5.0,5.0,45,0.00,,,0.00,Wunderground v.1.15,2013-03-02 20:03:00,
2013-03-02 15:08:00,54.1,33.8,29.96,SE,141,4.0,7.0,46,0.00,,,0.00,Wunderground v.1.15,2013-03-02 20:08:00,
2013-03-02 15:13:00,53.6,33.3,29.96,SSE,156,5.0,7.0,46,0.00,,,0.00,Wunderground v.1.15,2013-03-02 20:13:00,
2013-03-02 15:18:00,53.2,32.9,29.95,NE,49,4.0,4.0,46,0.00,,,0.00,Wunderground v.1.15,2013-03-02 20:18:00,
2013-03-02 15:23:00,53.3,33.6,29.96,East,90,3.0,7.0,47,0.00,,,0.00,Wunderground v.1.15,2013-03-02 20:23:00,
2013-03-02 15:28:00,53.7,32.8,29.96,East,98,4.0,7.0,45,0.00,,,0.00,Wunderground v.1.15,2013-03-02 20:28:00,
2013-03-02 15:33:00,54.1,33.8,29.96,East,82,4.0,7.0,46,0.00,,,0.00,Wunderground v.1.15,2013-03-02 20:33:00,
2013-03-02 15:38:00,54.4,34.0,29.95,SE,144,4.0,4.0,46,0.00,,,0.00,Wunderground v.1.15,2013-03-02 20:38:00,
2013-03-02 15:43:00,54.2,33.3,29.96,ENE,78,4.0,5.0,45,0.00,,,0.00,Wunderground v.1.15,2013-03-02 20:43:00,
2013-03-02 15:48:00,54.1,32.6,29.96,NE,56,4.0,4.0,44,0.00,,,0.00,Wunderground v.1.15,2013-03-02 20:48:00,
2013-03-02 15:53:00,54.0,33.7,29.96,East,89,5.0,5.0,46,0.00,,,0.00,Wunderground v.1.15,2013-03-02 20:53:00,
2013-03-02 15:58:00,53.9,33.6,29.96,ESE,103,5.0,5.0,46,0.00,,,0.00,Wunderground v.1.15,2013-03-02 20:58:00,
2013-03-02 16:03:00,53.8,33.5,29.96,SE,134,4.0,5.0,46,0.00,,,0.00,Wunderground v.1.15,2013-03-02 21:03:00,
2013-03-02 16:08:00,53.7,32.8,29.96,ESE,121,4.0,6.0,45,0.00,,,0.00,Wunderground v.1.15,2013-03-02 21:08:00,
2013-03-02 16:13:00,53.5,34.3,29.96,ESE,117,4.0,10.0,48,0.00,,,0.00,Wunderground v.1.15,2013-03-02 21:13:00,
2013-03-02 16:18:00,52.8,33.1,29.96,SE,128,4.0,6.0,47,0.00,,,0.00,Wunderground v.1.15,2013-03-02 21:18:00,
2013-03-02 16:23:00,52.8,34.2,29.96,ENE,68,4.0,6.0,49,0.00,,,0.00,Wunderground v.1.15,2013-03-02 21:23:00,
2013-03-02 16:28:00,53.0,33.8,29.96,SSE,152,4.0,4.0,48,0.00,,,0.00,Wunderground v.1.15,2013-03-02 21:28:00,
2013-03-02 16:38:00,52.6,34.0,29.96,SE,143,5.0,5.0,49,0.00,,,0.00,Wunderground v.1.15,2013-03-02 21:38:00,
2013-03-02 16:43:00,51.9,33.3,29.97,SE,136,5.0,5.0,49,0.00,,,0.00,Wunderground v.1.15,2013-03-02 21:43:00,
2013-03-02 16:48:00,51.5,33.0,29.97,SE,145,5.0,5.0,49,0.00,,,0.00,Wunderground v.1.15,2013-03-02 21:48:00,
2013-03-02 16:53:00,51.6,33.6,29.97,SE,141,4.0,11.0,50,0.00,,,0.00,Wunderground v.1.15,2013-03-02 21:53:00,
2013-03-02 16:58:00,51.6,33.0,29.97,SSE,147,4.0,4.0,49,0.00,,,0.00,Wunderground v.1.15,2013-03-02 21:58:00,
2013-03-02 17:03:00,51.0,33.0,29.98,SE,124,5.0,5.0,50,0.00,,,0.00,Wunderground v.1.15,2013-03-02 22:03:00,
2013-03-02 17:08:00,50.8,32.8,29.98,SE,126,5.0,9.0,50,0.00,,,0.00,Wunderground v.1.15,2013-03-02 22:08:00,
2013-03-02 17:13:00,50.5,33.0,29.98,ESE,104,5.0,9.0,51,0.00,,,0.00,Wunderground v.1.15,2013-03-02 22:13:00,
2013-03-02 17:18:00,50.5,33.5,29.98,ESE,112,4.0,4.0,52,0.00,,,0.00,Wunderground v.1.15,2013-03-02 22:18:00,
2013-03-02 17:23:00,50.2,33.2,29.98,SSE,160,3.0,4.0,52,0.00,,,0.00,Wunderground v.1.15,2013-03-02 22:23:00,
2013-03-02 17:28:00,49.7,32.8,29.98,SE,146,4.0,5.0,52,0.00,,,0.00,Wunderground v.1.15,2013-03-02 22:28:00,
2013-03-02 17:33:00,49.4,33.4,29.98,SE,128,5.0,5.0,54,0.00,,,0.00,Wunderground v.1.15,2013-03-02 22:33:00,
2013-03-02 17:38:00,49.3,32.4,29.99,SE,138,4.0,5.0,52,0.00,,,0.00,Wunderground v.1.15,2013-03-02 22:38:00,
2013-03-02 17:43:00,49.0,33.1,29.99,East,96,3.0,10.0,54,0.00,,,0.00,Wunderground v.1.15,2013-03-02 22:43:00,
2013-03-02 17:48:00,48.9,32.5,29.99,East,101,4.0,4.0,53,0.00,,,0.00,Wunderground v.1.15,2013-03-02 22:48:00,
2013-03-02 17:53:00,48.7,32.8,29.99,ESE,113,4.0,4.0,54,0.00,,,0.00,Wunderground v.1.15,2013-03-02 22:53:00,
2013-03-02 17:58:00,48.2,32.3,30.00,SE,146,4.0,6.0,54,0.00,,,0.00,Wunderground v.1.15,2013-03-02 22:58:00,
2013-03-02 18:03:00,47.8,32.9,30.00,ESE,105,4.0,6.0,56,0.00,,,0.00,Wunderground v.1.15,2013-03-02 23:03:00,
2013-03-02 18:08:00,47.5,32.6,30.00,ESE,118,3.0,3.0,56,0.00,,,0.00,Wunderground v.1.15,2013-03-02 23:08:00,
2013-03-02 18:13:00,47.1,32.2,30.00,SE,145,3.0,3.0,56,0.00,,,0.00,Wunderground v.1.15,2013-03-02 23:13:00,
2013-03-02 18:18:00,46.7,31.8,30.00,South,172,4.0,4.0,56,0.00,,,0.00,Wunderground v.1.15,2013-03-02 23:18:00,
2013-03-02 18:23:00,46.4,32.0,30.01,SE,128,4.0,4.0,57,0.00,,,0.00,Wunderground v.1.15,2013-03-02 23:23:00,
2013-03-02 18:33:00,45.8,32.3,30.01,SE,143,3.0,5.0,59,0.00,,,0.00,Wunderground v.1.15,2013-03-02 23:33:00,
2013-03-02 18:38:00,45.6,32.5,30.01,ESE,115,4.0,4.0,60,0.00,,,0.00,Wunderground v.1.15,2013-03-02 23:38:00,
2013-03-02 18:43:00,45.4,32.3,30.01,ESE,103,3.0,4.0,60,0.00,,,0.00,Wunderground v.1.15,2013-03-02 23:43:00,
2013-03-02 18:48:00,45.2,32.1,30.02,SE,145,3.0,4.0,60,0.00,,,0.00,Wunderground v.1.15,2013-03-02 23:48:00,
2013-03-02 18:53:00,45.0,31.9,30.02,SSE,151,3.0,4.0,60,0.00,,,0.00,Wunderground v.1.15,2013-03-02 23:53:00,
2013-03-02 18:58:00,44.9,31.4,30.02,SE,143,3.0,4.0,59,0.00,,,0.00,Wunderground v.1.15,2013-03-02 23:58:00,
2013-03-02 19:03:00,44.8,31.3,30.02,SE,142,4.0,4.0,59,0.00,,,0.00,Wunderground v.1.15,2013-03-03 00:03:00,
2013-03-02 19:08:00,44.7,31.7,30.03,SE,146,4.0,4.0,60,0.00,,,0.00,Wunderground v.1.15,2013-03-03 00:08:00,
2013-03-02 19:13:00,44.5,31.5,30.03,SE,144,4.0,5.0,60,0.00,,,0.00,Wunderground v.1.15,2013-03-03 00:13:00,
2013-03-02 19:18:00,44.3,31.3,30.03,SE,134,5.0,5.0,60,0.00,,,0.00,Wunderground v.1.15,2013-03-03 00:18:00,
2013-03-02 19:23:00,44.1,31.5,30.03,SE,146,4.0,5.0,61,0.00,,,0.00,Wunderground v.1.15,2013-03-03 00:23:00,
2013-03-02 19:28:00,44.0,31.4,30.03,SE,125,3.0,5.0,61,0.00,,,0.00,Wunderground v.1.15,2013-03-03 00:28:00,
2013-03-02 19:33:00,43.9,31.3,30.04,SE,124,4.0,5.0,61,0.00,,,0.00,Wunderground v.1.15,2013-03-03 00:33:00,
2013-03-02 19:43:00,43.6,31.0,30.03,SE,135,3.0,8.0,61,0.00,,,0.00,Wunderground v.1.15,2013-03-03 00:43:00,
2013-03-02 19:48:00,43.4,30.8,30.04,SE,134,4.0,4.0,61,0.00,,,0.00,Wunderground v.1.15,2013-03-03 00:48:00,
2013-03-02 19:53:00,43.3,30.7,30.04,SE,139,2.0,4.0,61,0.00,,,0.00,Wunderground v.1.15,2013-03-03 00:53:00,
2013-03-02 19:58:00,43.2,31.1,30.04,SE,143,3.0,3.0,62,0.00,,,0.00,Wunderground v.1.15,2013-03-03 00:58:00,
2013-03-02 20:03:00,43.1,31.0,30.04,ESE,119,3.0,3.0,62,0.00,,,0.00,Wunderground v.1.15,2013-03-03 01:03:00,
2013-03-02 20:13:00,42.8,31.1,30.04,SE,131,2.0,2.0,63,0.00,,,0.00,Wunderground v.1.15,2013-03-03 01:13:00,
2013-03-02 20:23:00,42.5,31.2,30.04,ESE,103,2.0,3.0,64,0.00,,,0.00,Wunderground v.1.15,2013-03-03 01:23:00,
2013-03-02 20:28:00,42.4,31.1,30.04,SE,124,2.0,4.0,64,0.00,,,0.00,Wunderground v.1.15,2013-03-03 01:28:00,
2013-03-02 20:33:00,42.4,31.1,30.04,SE,141,2.0,4.0,64,0.00,,,0.00,Wunderground v.1.15,2013-03-03 01:33:00,
2013-03-02 20:38:00,42.3,31.4,30.05,SE,133,3.0,3.0,65,0.00,,,0.00,Wunderground v.1.15,2013-03-03 01:38:00,
2013-03-02 20:43:00,42.2,31.3,30.05,ESE,102,2.0,4.0,65,0.00,,,0.00,Wunderground v.1.15,2013-03-03 01:43:00,
2013-03-02 20:48:00,42.1,31.6,30.06,SE,128,2.0,5.0,66,0.00,,,0.00,Wunderground v.1.15,2013-03-03 01:48:00,
2013-03-02 20:53:00,42.1,31.6,30.05,SE,139,2.0,5.0,66,0.00,,,0.00,Wunderground v.1.15,2013-03-03 01:53:00,
2013-03-02 20:58:00,42.0,31.5,30.05,SE,141,2.0,3.0,66,0.00,,,0.00,Wunderground v.1.15,2013-03-03 01:58:00,
2013-03-02 21:03:00,42.0,31.5,30.06,ESE,115,3.0,3.0,66,0.00,,,0.00,Wunderground v.1.15,2013-03-03 02:03:00,
2013-03-02 21:08:00,42.0,31.8,30.06,SE,143,2.0,3.0,67,0.00,,,0.00,Wunderground v.1.15,2013-03-03 02:08:00,
2013-03-02 21:13:00,41.9,31.7,30.06,East,101,3.0,3.0,67,0.00,,,0.00,Wunderground v.1.15,2013-03-03 02:13:00,
2013-03-02 21:18:00,41.8,31.6,30.06,SE,141,2.0,2.0,67,0.00,,,0.00,Wunderground v.1.15,2013-03-03 02:18:00,
2013-03-02 21:23:00,41.7,31.5,30.06,ESE,122,2.0,3.0,67,0.00,,,0.00,Wunderground v.1.15,2013-03-03 02:23:00,
2013-03-02 21:28:00,41.7,31.9,30.06,SE,129,2.0,2.0,68,0.00,,,0.00,Wunderground v.1.15,2013-03-03 02:28:00,
2013-03-02 21:33:00,41.5,31.7,30.06,SE,125,1.0,2.0,68,0.00,,,0.00,Wunderground v.1.15,2013-03-03 02:33:00,
2013-03-02 21:38:00,41.5,32.1,30.06,East,98,1.0,1.0,69,0.00,,,0.00,Wunderground v.1.15,2013-03-03 02:38:00,
2013-03-02 21:43:00,41.4,32.3,30.06,SE,143,2.0,2.0,70,0.00,,,0.00,Wunderground v.1.15,2013-03-03 02:43:00,
2013-03-02 21:48:00,41.3,32.2,30.06,SE,128,2.0,2.0,70,0.00,,,0.00,Wunderground v.1.15,2013-03-03 02:48:00,
2013-03-02 21:58:00,41.3,32.2,30.06,SE,126,2.0,2.0,70,0.00,,,0.00,Wunderground v.1.15,2013-03-03 02:58:00,
2013-03-02 22:08:00,41.1,32.1,30.06,SE,128,1.0,1.0,70,0.00,,,0.00,Wunderground v.1.15,2013-03-03 03:08:00,
2013-03-02 22:13:00,41.0,32.0,30.06,SE,124,1.0,1.0,70,0.00,,,0.00,Wunderground v.1.15,2013-03-03 03:13:00,
2013-03-02 22:18:00,40.8,31.8,30.06,SE,132,2.0,2.0,70,0.00,,,0.00,Wunderground v.1.15,2013-03-03 03:18:00,
2013-03-02 22:23:00,40.8,31.8,30.06,ESE,119,2.0,2.0,70,0.00,,,0.00,Wunderground v.1.15,2013-03-03 03:23:00,
2013-03-02 22:33:00,40.7,31.7,30.06,SE,129,2.0,2.0,70,0.00,,,0.00,Wunderground v.1.15,2013-03-03 03:33:00,
2013-03-02 22:38:00,40.6,31.9,30.06,SE,124,2.0,2.0,71,0.00,,,0.00,Wunderground v.1.15,2013-03-03 03:38:00,
2013-03-02 22:43:00,40.6,31.9,30.06,SE,124,1.0,2.0,71,0.00,,,0.00,Wunderground v.1.15,2013-03-03 03:43:00,
2013-03-02 22:53:00,40.4,32.1,30.06,SE,131,1.0,2.0,72,0.00,,,0.00,Wunderground v.1.15,2013-03-03 03:53:00,
2013-03-02 22:58:00,40.6,31.9,30.06,SE,139,2.0,3.0,71,0.00,,,0.00,Wunderground v.1.15,2013-03-03 03:58:00,
2013-03-02 23:03:00,40.6,31.9,30.05,ENE,72,2.0,3.0,71,0.00,,,0.00,Wunderground v.1.15,2013-03-03 04:03:00,
2013-03-02 23:08:00,40.5,31.8,30.05,SE,134,1.0,2.0,71,0.00,,,0.00,Wunderground v.1.15,2013-03-03 04:08:00,
2013-03-02 23:13:00,40.4,31.7,30.05,ESE,122,1.0,2.0,71,0.00,,,0.00,Wunderground v.1.15,2013-03-03 04:13:00,
2013-03-02 23:18:00,40.2,31.9,30.05,ESE,121,1.0,1.0,72,0.00,,,0.00,Wunderground v.1.15,2013-03-03 04:18:00,
2013-03-02 23:23:00,40.0,32.0,30.05,East,101,0.0,2.0,73,0.00,,,0.00,Wunderground v.1.15,2013-03-03 04:23:00,
2013-03-02 23:28:00,40.0,32.0,30.05,ESE,110,1.0,1.0,73,0.00,,,0.00,Wunderground v.1.15,2013-03-03 04:28:00,
2013-03-02 23:38:00,40.0,32.4,30.04,East,98,1.0,1.0,74,0.00,,,0.00,Wunderground v.1.15,2013-03-03 04:38:00,
2013-03-02 23:43:00,39.9,32.3,30.04,East,99,1.0,1.0,74,0.00,,,0.00,Wunderground v.1.15,2013-03-03 04:43:00,
2013-03-02 23:48:00,39.7,32.1,30.05,ESE,104,1.0,1.0,74,0.00,,,0.00,Wunderground v.1.15,2013-03-03 04:48:00,
2013-03-02 23:53:00,39.7,32.1,30.05,ESE,102,1.0,1.0,74,0.00,,,0.00,Wunderground v.1.15,2013-03-03 04:53:00,
2013-03-02 23:58:00,39.6,32.0,30.04,ESE,117,1.0,2.0,74,0.00,,,0.00,Wunderground v.1.15,2013-03-03 04:58:00,